CW3999 Weather Reports


Display with metric or nautical units.
time (UTC)temp
F
wind
direction
speed
MPH
gust
MPH
rain 1hr
in
rain 24hr
in
rain mn
in
humidity
%
barometer
mb
20260504022704 86 252 0.0 0.0 0.00 0.00 0.00 30 1004.6
20260504022203 86 252 0.0 0.0 0.00 0.00 0.00 29 1004.5
20260504021704 86 252 0.0 0.0 0.00 0.00 0.00 29 1004.6
20260504021202 87 252 0.0 0.0 0.00 0.00 0.00 31 1004.5
20260504020704 87 252 0.0 0.0 0.00 0.00 0.00 30 1004.6
20260504020204 87 252 0.0 0.0 0.00 0.00 0.00 30 1004.6
20260504015701 87 252 0.0 0.0 0.00 0.00 0.00 31 1004.6
20260504015203 87 252 0.0 0.0 0.00 0.00 0.00 31 1004.6
20260504014702 87 252 0.0 0.0 0.00 0.00 0.00 31 1004.7
20260504014202 87 252 0.0 0.0 0.00 0.00 0.00 29 1004.7
20260504013203 87 252 0.0 0.0 0.00 0.00 0.00 30 1004.7
20260504012704 87 252 0.0 0.0 0.00 0.00 0.00 31 1004.8
20260504012204 87 252 0.0 0.0 0.00 0.00 0.00 31 1004.8
20260504011706 87 252 0.0 0.0 0.00 0.00 0.00 29 1004.8
20260504011204 88 252 0.0 0.0 0.00 0.00 0.00 32 1004.9
20260504010703 88 252 0.0 0.0 0.00 0.00 0.00 30 1004.9
20260504010202 88 252 0.0 0.0 0.00 0.00 0.00 29 1005.0
20260504005705 89 252 0.0 0.0 0.00 0.00 0.00 34 1004.9
20260504005204 89 252 0.0 0.0 0.00 0.00 0.00 30 1005.0
20260504004704 89 252 0.0 0.0 0.00 0.00 0.00 30 1005.1
20260504004204 89 252 0.0 0.0 0.00 0.00 0.00 28 1005.2
20260504003203 89 252 0.0 0.0 0.00 0.00 0.00 25 1005.2
20260504002703 89 252 0.0 0.0 0.00 0.00 0.00 28 1005.2
20260504002204 89 252 0.0 0.0 0.00 0.00 0.00 26 1005.2
20260504001703 89 252 0.0 0.0 0.00 0.00 0.00 30 1005.2
20260504001204 89 252 0.0 0.0 0.00 0.00 0.00 30 1005.2
20260504000204 89 252 0.0 0.0 0.00 0.00 0.00 28 1005.2
20260503235658 89 252 0.0 0.0 0.00 0.00 0.00 27 1005.3
20260503235150 89 252 0.0 0.0 0.00 0.00 0.00 28 1005.3
20260503233630 89 251 0.0 0.0 0.00 0.00 0.00 25 1005.5
20260503233128 89 251 0.0 0.0 0.00 0.00 0.00 28 1005.6
20260503232130 89 251 0.0 0.0 0.00 0.00 0.00 28 1005.6
20260503231130 90 251 0.0 0.0 0.00 0.00 0.00 30 1005.7
20260503230630 90 251 0.0 0.0 0.00 0.00 0.00 28 1005.7
20260503230126 90 251 0.0 0.0 0.00 0.00 0.00 27 1005.8
20260503225622 90 251 0.0 0.0 0.00 0.00 0.00 29 1006.0
20260503224104 91 251 0.0 0.0 0.00 0.00 0.00 26 1006.2
20260503222604 90 251 0.0 0.0 0.00 0.00 0.00 26 1006.4
20260503222103 89 251 0.0 0.0 0.00 0.00 0.00 28 1006.5
20260503221603 89 251 0.0 0.0 0.00 0.00 0.00 28 1006.6
20260503220603 89 251 0.0 0.0 0.00 0.00 0.00 28 1006.7
20260503220103 89 251 0.0 0.0 0.00 0.00 0.00 33 1006.8
20260503215604 89 251 0.0 0.0 0.00 0.00 0.00 30 1006.8
20260503215103 88 241 0.0 0.0 0.00 0.00 0.00 32 1007.0
20260503214603 88 241 0.0 0.0 0.00 0.00 0.00 32 1007.0
20260503214103 89 241 0.0 0.0 0.00 0.00 0.00 31 1007.1
20260503213600 89 241 0.0 0.0 0.00 0.00 0.00 37 1007.1
20260503213101 88 241 0.0 0.0 0.00 0.00 0.00 35 1007.1
20260503212601 88 241 0.0 0.0 0.00 0.00 0.00 36 1007.2
20260503212100 88 237 0.0 0.0 0.00 0.00 0.00 36 1007.2
20260503211602 88 236 0.0 0.0 0.00 0.00 0.00 35 1007.3
20260503211103 87 236 0.0 0.0 0.00 0.00 0.00 32 1007.4
20260503210604 87 236 0.0 0.0 0.00 0.00 0.00 36 1007.5
20260503210103 86 236 0.0 0.0 0.00 0.00 0.00 37 1007.6
20260503205601 87 236 0.0 0.0 0.00 0.00 0.00 33 1007.6
20260503205102 87 236 0.0 0.0 0.00 0.00 0.00 42 1007.7
20260503204601 86 236 0.0 0.0 0.00 0.00 0.00 39 1007.8
20260503204101 85 236 0.0 0.0 0.00 0.00 0.00 46 1007.8
20260503203602 85 236 0.0 0.0 0.00 0.00 0.00 43 1007.9
20260503202602 84 236 0.0 0.0 0.00 0.00 0.00 44 1008.1
20260503202101 84 236 0.0 0.0 0.00 0.00 0.00 44 1008.1
20260503201602 84 236 0.0 0.0 0.00 0.00 0.00 47 1008.2
20260503201107 84 236 0.0 0.0 0.00 0.00 0.00 45 1008.2
20260503200602 84 236 0.0 0.0 0.00 0.00 0.00 45 1008.3
20260503200104 84 236 0.0 0.0 0.00 0.00 0.00 45 1008.4
20260503195603 83 236 0.0 0.0 0.00 0.00 0.00 48 1008.5
20260503195103 82 236 0.0 0.0 0.00 0.00 0.00 45 1008.6
20260503194104 82 236 0.0 0.0 0.00 0.00 0.00 46 1008.6
20260503193101 82 236 0.0 0.0 0.00 0.00 0.00 46 1008.7
20260503192602 83 236 0.0 0.0 0.00 0.00 0.00 47 1008.8
20260503192103 83 236 0.0 0.0 0.00 0.00 0.00 48 1008.8
20260503191601 81 236 0.0 0.0 0.00 0.00 0.00 48 1008.9
20260503191102 81 236 0.0 0.0 0.00 0.00 0.00 47 1008.9
20260503190601 80 236 0.0 0.0 0.00 0.00 0.00 47 1009.0
20260503190103 80 236 0.0 0.0 0.00 0.00 0.00 46 1009.0
20260503185053 79 236 0.0 0.0 0.00 0.00 0.00 46 1009.1
20260503184555 79 236 0.0 0.0 0.00 0.00 0.00 47 1009.2
20260503184051 78 236 0.0 0.0 0.00 0.00 0.00 49 1009.3
20260503183539 78 236 0.0 0.0 0.00 0.00 0.00 47 1009.4
20260503183037 77 236 0.0 0.0 0.00 0.00 0.00 48 1009.5
20260503181532 76 235 0.0 0.0 0.00 0.00 0.00 50 1009.6
20260503181031 76 235 0.0 0.0 0.00 0.00 0.00 49 1009.6
20260503180531 75 235 0.0 0.0 0.00 0.00 0.00 49 1009.6
20260503180030 75 235 0.0 0.0 0.00 0.00 0.00 50 1009.7
20260503175031 75 235 0.0 0.0 0.00 0.00 0.00 51 1009.8
20260503174530 74 232 0.0 0.0 0.00 0.00 0.00 50 1009.8
20260503174030 74 225 0.0 0.0 0.00 0.00 0.00 51 1009.8
20260503173532 74 211 0.0 0.0 0.00 0.00 0.00 51 1009.9
20260503173018 74 211 0.0 0.0 0.00 0.00 0.00 51 1009.9
20260503172520 73 211 0.0 0.0 0.00 0.00 0.00 51 1009.9
20260503172001 73 212 0.0 0.0 0.00 0.00 0.00 48 1010.0
20260503171008 72 212 0.0 0.0 0.00 0.00 0.00 49 1010.0
20260503170504 71 212 0.0 0.0 0.00 0.00 0.00 48 1010.0
20260503150502 56 204 0.0 0.0 0.00 0.00 0.00 100 1010.5
20260503131001 49 204 0.0 0.0 0.00 0.00 0.00 100 1010.2
20260503130508 49 204 0.0 0.0 0.00 0.00 0.00 100 1010.2
20260503110502 51 204 0.0 0.0 0.00 0.00 0.00 100 1010.4
20260503090503 53 204 0.0 0.0 0.00 0.00 0.00 100 1010.7
20260503081502 55 204 0.0 0.0 0.00 0.00 0.00 100 1010.8
20260503081003 55 204 0.0 0.0 0.00 0.00 0.00 100 1010.7
20260503080504 55 204 0.0 0.0 0.00 0.00 0.00 100 1010.8
20260503072503 55 204 0.0 0.0 0.00 0.00 0.00 100 1010.8
20260503072001 56 204 0.0 0.0 0.00 0.00 0.00 100 1010.8
20260503071502 56 204 0.0 0.0 0.00 0.00 0.00 100 1010.8
20260503054503 60 204 0.0 0.0 0.00 0.00 0.00 100 1010.8
20260503053504 60 204 0.0 0.0 0.00 0.00 0.00 100 1010.9
20260503053002 60 204 0.0 0.0 0.00 0.00 0.00 100 1010.8
20260503052502 60 204 0.0 0.0 0.00 0.00 0.00 100 1010.7
20260503052002 60 204 0.0 0.0 0.00 0.00 0.00 100 1010.8
20260503051502 61 204 0.0 0.0 0.00 0.00 0.00 100 1011.0
20260503051002 61 204 0.0 0.0 0.00 0.00 0.00 100 1011.2
20260503050502 61 204 0.0 0.0 0.00 0.00 0.00 100 1011.0
20260503044946 61 204 0.0 0.0 0.00 0.00 0.00 100 1010.8
20260503044447 62 204 0.0 0.0 0.00 0.00 0.00 100 1010.7
20260503043931 62 204 0.0 0.0 0.00 0.00 0.00 100 1010.8
20260503043430 62 204 0.0 0.0 0.00 0.00 0.00 100 1010.8
20260503042430 62 204 0.0 0.0 0.00 0.00 0.00 100 1010.9
20260503041930 62 204 0.0 0.0 0.00 0.00 0.00 100 1011.0
20260503041429 62 204 0.0 0.0 0.00 0.00 0.00 100 1011.1
20260503040931 62 204 0.0 0.0 0.00 0.00 0.00 100 1011.0
20260503034934 63 204 0.0 0.0 0.00 0.00 0.00 100 1010.7
20260503033930 63 204 0.0 0.0 0.00 0.00 0.00 100 1010.6
20260503033430 63 204 0.0 0.0 0.00 0.00 0.00 100 1010.5
20260503032930 63 204 0.0 0.0 0.00 0.00 0.00 4 1010.5
20260503032431 64 204 0.0 0.0 0.00 0.00 0.00 8 1010.4
20260503031931 64 200 0.0 0.0 0.00 0.00 0.00 12 1010.5
20260503031430 64 200 0.0 0.0 0.00 0.00 0.00 13 1010.4
20260503030929 64 200 0.0 0.0 0.00 0.00 0.00 15 1010.5
20260503030429 64 200 0.0 0.0 0.00 0.00 0.00 16 1010.6
20260503025930 64 200 0.0 0.0 0.00 0.00 0.00 15 1010.3
20260503025431 65 200 0.0 0.0 0.00 0.00 0.00 16 1010.5
20260503024930 65 200 0.0 0.0 0.00 0.00 0.00 18 1010.5
20260503024430 65 200 0.0 0.0 0.00 0.00 0.00 20 1010.5